sat.trackr.live / text

‹ back to catalog

IRIDIUM 114

NORAD 41923 · 2017-003G

PAYLOAD ACTIVE UNKNOWN

§ Identity

Operator
Country
US
Launch date
2017-01-14
Launch site
AFWTR
Launch vehicle
Mass (kg)
RCS (m²)
2.44

Purposes: comms

External: N2YO · Heavens-Above · Gunter

§ Orbital elements

Epoch: 2026-09-20T04:06:10.758240Z

Period
100.40 min
Inclination
86.3950°
Eccentricity
0.0002206
Mean motion
14.34217456 rev/d
Perigee alt
776.1 km
Apogee alt
779.2 km
Semi-major
7,155.8 km
B*
5.3820e-5
RAAN
48.7212°
Arg perigee
90.7072°
Mean anomaly
269.4377°
Rev number
50,686

§ Raw data

IRIDIUM 1141 41923U 17003G   26263.17095785  .00000171  00000+0  53820-4 0  99912 41923  86.3950  48.7212 0002206  90.7072 269.4377 14.34217456506861

JSON: /api/v1/satellites/41923 · /tle

For live sub-satellite position, see the globe view (requires WebGL).

§ Visibility from observer

Set your observer location to see the next 7 days of passes ≥ 10°. The values pass through the URL so the page stays shareable.

No JS? Fill the form by hand. The geolocation button needs JavaScript.